Location: Ústí nad Labem
(50.6611°N, 14.0531°E)
Time: 10:20:45
(UTC+02:00)

S-56A Canister/Altair - Visible Passes

Search period start: 17 April 2024 00:00
Search period end: 27 April 2024 00:00
Orbit: 639 x 2488 km, 38.9° (Epoch: 16 April)

Date Brightness Start Highest point End Pass type
(mag) Time Alt. Az. Time Alt. Az. Time Alt. Az.
17 Apr 10.8 01:17:36 10° WSW 01:20:06 15° WSW 01:20:06 15° WSW visible
17 Apr 9.4 20:36:34 10° WSW 20:43:15 38° S 20:52:52 10° ESE visible
17 Apr 9.8 22:39:17 10° WSW 22:47:07 36° SSW 22:50:42 30° SSE visible
18 Apr 10.6 00:43:50 10° WSW 00:48:02 19° SW 00:48:02 19° SW visible
18 Apr 9.7 22:06:04 10° WSW 22:13:25 36° S 22:18:40 24° SSE visible
19 Apr 10.4 00:10:13 10° WSW 00:16:00 22° SW 00:16:00 22° SW visible
19 Apr 9.6 21:32:53 10° WSW 21:39:47 35° S 21:46:39 18° SE visible
19 Apr 10.3 23:36:42 10° WSW 23:43:41 23° SSW 23:43:59 23° SSW visible
20 Apr 9.5 20:59:47 10° WSW 21:06:13 35° S 21:14:39 12° SE visible
20 Apr 10.2 23:03:17 10° WSW 23:09:59 24° SSW 23:11:59 23° S visible
21 Apr 10.1 22:29:56 10° WSW 22:36:21 24° SSW 22:40:02 20° S visible
22 Apr 10.0 21:56:40 10° WSW 22:02:45 25° SSW 22:08:07 16° SSE visible
23 Apr 10.8 00:04:10 10° SW 00:05:27 11° SW 00:05:27 11° SW visible
23 Apr 9.9 21:23:28 10° WSW 21:29:12 25° SSW 21:36:13 12° SSE visible
23 Apr 10.7 23:29:47 10° SW 23:32:43 12° SW 23:33:34 12° SSW visible
24 Apr 9.8 20:50:18 10° WSW 20:55:42 25° SSW 21:02:55 10° SE visible
24 Apr 10.6 22:55:51 10° SW 22:59:09 12° SSW 23:01:42 11° SSW visible
25 Apr 10.6 22:22:10 10° SW 22:25:36 13° SSW 22:29:33 10° S visible
26 Apr 10.5 21:48:37 10° SW 21:52:05 14° SSW 21:56:08 10° S visible
